Custer, SD

3:51 AM MST on November 22, 2019 (GMT -0700)
Custer County

Weather History for KCUT - October, 2019

Change the Weather History Date:

Sunday, October 20, 2019

  Actual Average Record
Temperature  
Mean Temperature 34 °F 42 °F  
Max Temperature 41 °F 53 °F 75 °F (1947)
Min Temperature 28 °F 30 °F 10 °F (1976)
Degree Days  
Heating Degree Days 30 24  
Month to date heating degree days 503 415  
Since 1 July heating degree days 888 901  
Cooling Degree Days 0 0  
Month to date cooling degree days 0 0  
Year to date cooling degree days 140 177  
Moisture  
Dew Point 29 °F    
Average Humidity 85    
Maximum Humidity 96    
Minimum Humidity 51    
Precipitation  
Precipitation 0.15 in 0.05 in 0.57 in (1957)
Month to date precipitation 0.66 1.14  
Year to date precipitation 25.68 17.63  
Sea Level Pressure  
Sea Level Pressure 29.54 in    
Wind  
Wind Speed 8 mph ()    
Max Wind Speed 35 mph    
Max Gust Speed 68 mph    
T = Trace of Precipitation, MM = Missing Value Source: Averaged Metar Reports

Daily Weather History Graph

Daily Weather History Graph

Search for Another Location

Airport or City:

Astronomy

Oct. 20, 2019 Rise Set
Actual Time 7:14 AM MDT 6:03 PM MDT
Civil Twilight 6:45 AM MDT 6:32 PM MDT
Nautical Twilight 6:12 AM MDT 7:05 PM MDT
Astronomical Twilight 5:38 AM MDT 7:38 PM MDT
Moon 11:06 PM MDT (10/20) 1:52 PM MDT (10/20)
Length of Visible Light 11h 46m
Length of Day
10h 48m
Waning Gibbous, 58% of the Moon is Illuminated
Oct 20
Waning Gibbous
Oct 21
Last Quarter
Oct 27
New
Nov 4
First Quarter
Nov 12
Full

Hourly Weather History & Observations

Time (MDT) Temp. Windchill Dew Point Humidity Pressure Visibility Wind Dir Wind Speed Gust Speed Precip Events Conditions
12:53 AM 41.0 °F 38.0 °F 25.0 °F 53% 29.52 in - South 4.6 mph - N/A   Overcast
1:53 AM 41.0 °F 37.1 °F 28.0 °F 60% 29.50 in - SW 5.8 mph - N/A   Overcast
2:53 AM 37.0 °F 29.3 °F 32.0 °F 82% 29.51 in - WSW 11.5 mph 20.7 mph 0.00 in Rain Light Rain
3:44 AM 35.6 °F 32.8 °F 33.8 °F 93% 29.55 in - WSW 3.5 mph - N/A Rain Light Rain
3:53 AM 36.0 °F - 34.0 °F 93% 29.50 in - Calm Calm - 0.02 in Rain Light Rain
4:24 AM 37.0 °F 31.6 °F 34.0 °F 89% 29.54 in - Variable 6.9 mph - 0.01 in Rain Light Rain
4:45 AM 36.0 °F 31.1 °F 34.0 °F 93% 29.53 in - WSW 5.8 mph - 0.01 in Rain Light Rain
4:53 AM 36.0 °F 31.1 °F 34.0 °F 93% 29.49 in - WSW 5.8 mph - 0.01 in Rain Light Rain
5:53 AM 36.0 °F 32.1 °F 33.1 °F 89% 29.49 in - SW 4.6 mph - 0.01 in   Overcast
6:37 AM 36.0 °F 33.3 °F 33.1 °F 89% 29.52 in - WSW 3.5 mph - N/A   Overcast
6:53 AM 36.0 °F 29.0 °F 32.0 °F 86% 29.49 in - West 9.2 mph - N/A   Overcast
7:53 AM 34.0 °F 28.8 °F 25.0 °F 70% 29.49 in - WNW 5.8 mph - N/A   Overcast
8:53 AM 33.1 °F 28.7 °F 28.0 °F 82% 29.51 in - East 4.6 mph - N/A   Overcast
9:17 AM 32.0 °F 24.8 °F 27.0 °F 82% 29.50 in - NNE 8.1 mph - 0.00 in Snow Light Snow
9:31 AM 30.9 °F 23.5 °F 28.9 °F 92% 29.49 in - North 8.1 mph - 0.00 in Snow Light Snow
9:36 AM 30.9 °F 22.8 °F 28.9 °F 92% 29.49 in - North 9.2 mph - 0.00 in Snow Light Snow
9:53 AM 35.1 °F 26.9 °F 32.0 °F 89% 29.49 in - NNE 11.5 mph - 0.00 in Snow Light Snow
10:04 AM 36.0 °F 29.0 °F 33.1 °F 89% 29.49 in - North 9.2 mph - 0.00 in Snow Light Snow
10:53 AM 36.0 °F 28.5 °F 30.9 °F 82% 29.46 in - NNW 10.4 mph 19.6 mph 0.00 in   Overcast
11:05 AM 36.0 °F 31.1 °F 30.9 °F 82% 29.48 in - Variable 5.8 mph 17.3 mph N/A   Mostly Cloudy
11:26 AM 37.0 °F 30.4 °F 32.0 °F 82% 29.47 in - NW 9.2 mph - 0.00 in Snow Light Snow
11:33 AM 35.1 °F 29.3 °F 32.0 °F 89% 29.47 in - Variable 6.9 mph - 0.00 in Snow Light Snow
11:53 AM 35.1 °F 31.0 °F 32.0 °F 89% 29.47 in - Variable 4.6 mph - 0.01 in Snow Light Snow
12:22 PM 34.0 °F 28.8 °F 32.0 °F 92% 29.46 in - WNW 5.8 mph - 0.00 in Snow Light Snow
12:39 PM 34.0 °F 29.8 °F 32.0 °F 92% 29.46 in - West 4.6 mph - 0.01 in Snow Light Snow
12:53 PM 34.0 °F 29.8 °F 32.0 °F 92% 29.45 in - West 4.6 mph - 0.01 in Snow Light Snow
12:58 PM 34.0 °F 31.0 °F 33.1 °F 96% 29.47 in - West 3.5 mph - 0.00 in Snow Light Snow
1:06 PM 33.8 °F 29.6 °F 32.0 °F 93% 29.47 in - West 4.6 mph - N/A Snow Light Snow
1:16 PM 34.0 °F 27.2 °F 30.9 °F 89% 29.46 in - North 8.1 mph 20.7 mph 0.01 in Snow Light Snow
1:25 PM 34.0 °F 28.0 °F 30.9 °F 89% 29.47 in - North 6.9 mph - 0.01 in   Overcast
1:38 PM 34.0 °F 25.5 °F 30.9 °F 89% 29.47 in - North 11.5 mph 25.3 mph 0.01 in   Overcast
1:53 PM 34.0 °F 24.6 °F 30.0 °F 85% 29.45 in - North 13.8 mph 27.6 mph 0.01 in   Overcast
2:44 PM 33.1 °F 23.0 °F 28.0 °F 82% 29.50 in - North 15.0 mph 32.2 mph 0.00 in Snow Light Snow
2:53 PM 33.1 °F 22.6 °F 27.0 °F 78% 29.52 in - North 16.1 mph 31.1 mph 0.00 in Snow Light Snow
3:23 PM 30.0 °F 17.9 °F 27.0 °F 88% 29.53 in - North 18.4 mph 36.8 mph 0.01 in Snow Heavy Snow
3:39 PM 28.9 °F 15.4 °F 26.1 °F 89% 29.54 in - North 21.9 mph 44.9 mph 0.01 in Snow Snow
3:53 PM 30.0 °F 17.5 °F 26.1 °F 85% 29.58 in - North 19.6 mph 36.8 mph 0.03 in Snow Snow
4:26 PM 30.0 °F 17.2 °F 27.0 °F 88% 29.56 in - North 20.7 mph 51.8 mph 0.01 in Snow Snow
4:53 PM 30.0 °F 16.0 °F 27.0 °F 88% 29.60 in - North 25.3 mph 51.8 mph 0.03 in Snow Snow
5:12 PM 30.0 °F 17.2 °F 26.1 °F 85% 29.57 in - North 20.7 mph 48.3 mph 0.01 in Snow Light Snow
5:16 PM 30.0 °F - 26.1 °F 85% 29.57 in - North - - 0.01 in Snow Light Snow
5:53 PM 30.9 °F 16.7 °F 26.1 °F 82% 29.61 in - North 27.6 mph 67.9 mph 0.01 in Snow Light Snow
7:53 PM 30.9 °F 22.8 °F 26.1 °F 82% 29.74 in - North 9.2 mph 31.1 mph 0.01 in Snow Snow
8:53 PM 30.9 °F 22.8 °F 26.1 °F 82% 29.78 in - NW 9.2 mph 19.6 mph 0.00 in Snow Light Snow
9:53 PM 30.9 °F 23.5 °F 25.0 °F 79% 29.80 in - NNW 8.1 mph 24.2 mph 0.00 in   Mostly Cloudy
10:53 PM 32.0 °F 22.1 °F 25.0 °F 75% 29.79 in - NW 13.8 mph 24.2 mph 0.00 in Snow Light Snow
11:51 PM 32.0 °F 23.6 °F 24.8 °F 75% 29.75 in - NW 10.4 mph 21.9 mph 0.00 in   Mostly Cloudy
11:53 PM 32.0 °F 23.6 °F 24.1 °F 73% 29.79 in - NW 10.4 mph 21.9 mph 0.00 in   Mostly Cloudy